Regional Weather Roundup
Issued by NWS

Home | Current Version | Previous Version | Text Only | Print | Product List | Glossary Off
Versions: 1 2 3 4 5 6 7 8 9 10 11 12 13 14 15 16 17 18 19 20 21 22 23 24 25 26 27 28 29 30 31 32 33 34 35 36 37 38 39 40 41 42 43 44 45 46 47 48 49 50

000
ASUS43 KDTX 230301
RWRMI
MICHIGAN HOURLY REGIONAL WEATHER ROUNDUP
NATIONAL WEATHER SERVICE DETROIT/PONTIAC MI
1000 PM EST WED NOV 22 2017

NOTE: "FAIR" INDICATES FEW OR NO CLOUDS BELOW 12,000 FEET WITH NO
SIGNIFICANT WEATHER AND/OR OBSTRUCTION TO VISIBILITY.

MIZ047>049-052>055-059>063-066>070-074>076-081>083-230400-
SOUTHEAST LOWER MICHIGAN

CITY           SKY/WX    TMP DP  RH WIND       PRES   REMARKS
ADRIAN         CLOUDY    26  21  81 CALM      30.23F
ALMA           CLOUDY    30  23  75 S6        30.18F WCI  24
ANN ARBOR      CLOUDY    20  18  92 SW3       30.21F
BAD AXE        PTCLDY    28  19  70 SW5       30.20S WCI  22
CARO           PTCLDY    25  19  78 CALM      30.19F
DETROIT CITY   CLOUDY    28  18  66 CALM      30.23F
DETROIT        CLOUDY    29  19  66 CALM      30.23F
FLINT          CLOUDY    27  18  69 S7        30.21F WCI  19
GROSSE ILE     CLOUDY    26  21  81 CALM      30.23S
HILLSDALE      PTCLDY    27  19  74 S3        30.19F
HOWELL         PTCLDY    27  20  75 CALM      30.20F

CITY           SKY/WX    TMP DP  RH WIND       PRES   REMARKS
JACKSON        CLOUDY    26  18  71 CALM      30.20F
LAMBERTVILLE   CLOUDY    30  20  67 CALM      30.24S
LANSING        PTCLDY    28  20  71 S6        30.20F WCI  22
LAPEER         FAIR      26  20  80 S3        30.20F
MASON          CLOUDY    28  22  79 CALM      30.20F
MONROE         CLOUDY    28  23  81 CALM      30.23S
MT. CLEMENS    CLEAR     25  21  85 CALM      30.21F
PONTIAC        CLOUDY    26  20  77 CALM      30.19F
PORT HOPE        N/A     30  19  63 SW3       30.18F
PORT HURON     PTCLDY    23  19  86 CALM      30.22F
TRI CITIES     PTCLDY    29  21  72 S7        30.19F WCI  22
MIDLAND        MOCLDY    30  20  65 S3        30.17F
TROY           CLOUDY    30  19  64 CALM      30.24S
SAGINAW HB     CLOUDY    28  21  74 S6        30.19F WCI  22
$$
MIZ043>046-050>051-056>058-064>065-071>073-077>080-230400-
SOUTHWEST LOWER MICHIGAN

CITY           SKY/WX    TMP DP  RH WIND       PRES   REMARKS
BATTLE CREEK   CLOUDY    28  22  78 S5        30.20F WCI  23
BENTON HARBOR  CLOUDY    32  23  69 S7        30.19F WCI  26
BIG RAPIDS     CLOUDY    29  21  73 SW3       30.14F
COLDWATER      PTCLDY    28  22  80 S5        30.20F WCI  22
FREMONT        MOCLDY    29  23  78 S3        30.16F
HOLLAND        CLOUDY    32  24  72 S9        30.19F WCI  24
GRAND RAPIDS   CLOUDY    31  24  75 S9        30.18F WCI  23
IONIA          FAIR      31  23  72 S6        30.17F WCI  25
KALAMAZOO      MOCLDY    29  22  75 SW5       30.20F WCI  24
LUDINGTON      CLOUDY    33  22  63 SW7G17    30.13F WCI  27
MARSHALL       CLOUDY    27  19  72 CALM      30.20F
MOUNT PLEASANT CLOUDY    31  20  62 S6        30.16F WCI  25
MUSKEGON       CLOUDY    35  23  61 SW13      30.18F WCI  26
SOUTH HAVEN    CLOUDY    32  24  71 S7        30.19F WCI  26
$$
MIZ016>042-230400-
NORTHERN LOWER MICHIGAN

CITY           SKY/WX    TMP DP  RH WIND       PRES   REMARKS
ALPENA         MOCLDY    30  19  63 SW3       30.15F
BEAVER ISLAND  CLOUDY    33  25  70 SW10G16   30.08F WCI  25
BELLAIRE       CLOUDY    30  23  74 SW3       30.14F
CADILLAC       CLOUDY    26  19  76 SW9       30.10F WCI  17
CHARLEVOIX     CLOUDY    31  22  68 S9G16     30.14F WCI  23
FRANKFORT      CLOUDY    35  23  62 SW10G18   30.12F WCI  27
GAYLORD        CLOUDY    25  17  72 SW10      30.10S WCI  15
GRAYLING       CLOUDY    27  17  65 SW3       30.13S
HARBOR SPRINGS CLOUDY    30  20  65 S9G17     30.11F WCI  22
HOUGHTON LAKE  CLOUDY    27  18  69 S7        30.13F WCI  19
MANISTEE       CLOUDY    29  22  75 SE6       30.13F WCI  23
OSCODA         PTCLDY    28  16  60 SW5       30.16F WCI  23
PELLSTON       CLOUDY    30  20  66 S7        30.12S WCI  23
ROGERS CITY    CLOUDY    30  19  61 SW8       30.14S WCI  23
TRAVERSE CITY  CLOUDY    30  20  66 VRB7      30.13F WCI  23
$$
MIZ007>008-015-230400-
EASTERN UPPER MICHIGAN

CITY           SKY/WX    TMP DP  RH WIND       PRES   REMARKS
KINROSS        FLURRIES  28  24  85 S7        30.07F WCI  21
MACKINAC ISLAN CLOUDY    32  20  61 S10G22    30.09F WCI  24
NEWBERRY       CLOUDY    26  22  85 SW7       30.05F WCI  18
S. S. MARIE    CLOUDY    28  22  78 S3        30.07F
MUNISING         N/A     27  18  69 S6        30.05F WCI  20
$$
MIZ004>006-011>014-085-230400-
CENTRAL UPPER MICHIGAN

CITY           SKY/WX    TMP DP  RH WIND       PRES   REMARKS
MANISTIQUE     CLOUDY    29  18  61 SW6       30.07F WCI  23
ESCANABA       MOCLDY    27  16  63 SW6       30.09F WCI  20
MENOMINEE      CLOUDY    28  17  63 SW6       30.11F WCI  22
SAWYER-GWINN   CLOUDY    23  16  74 SW7       30.02F WCI  15
$$
MIZ001>003-009>011-084-230400-
WESTERN UPPER MICHIGAN

CITY           SKY/WX    TMP DP  RH WIND       PRES   REMARKS
IRON MOUNTAIN  CLOUDY    26  12  55 S7        30.03F WCI  18
HOUGHTON       CLOUDY    25  13  60 SW7       29.97F WCI  17
COPPER HARBOR    N/A     27  13  55 W7        29.98F WCI  19
IRONWOOD       FLURRIES  22  16  78 SW10      30.01F WCI  11
$$

ABBREVIATIONS USED IN REMARKS
   TC - TEMPERATURE IN CELSIUS
  WCI - WIND CHILL INDEX
   HX - HEAT INDEX
  VSB - VISIBILITY





USA.gov is the U.S. government's official web portal to all federal, state and local government web resources and services.